Time,TemperatureF,DewpointF,PressureIn,WindDirection,WindDirectionDegrees,WindSpeedMPH,WindSpeedGustMPH,Humidity,HourlyPrecipIn,Conditions,Clouds,dailyrainin,SoftwareType,DateUTC
2013-02-02 00:00:00,29.0,-99.9,-100.00,NE,47,37.0,42.0,-999,0.00,,,0.16,,2013-02-02 09:00:00,
2013-02-02 00:32:00,29.0,-99.9,-100.00,NE,47,37.0,42.0,-999,0.00,,,0.16,,2013-02-02 09:32:00,
2013-02-02 00:42:00,29.0,-99.9,-100.00,NE,47,37.0,42.0,-999,0.00,,,0.16,,2013-02-02 09:42:00,
2013-02-02 00:52:00,29.0,-99.9,-100.00,NE,47,37.0,42.0,-999,0.00,,,0.16,,2013-02-02 09:52:00,
2013-02-02 01:00:00,29.0,-99.9,-100.00,NE,37,37.0,46.0,-999,0.00,,,0.14,,2013-02-02 10:00:00,
2013-02-02 01:32:00,29.0,-99.9,-100.00,NE,37,37.0,46.0,-999,0.00,,,0.14,,2013-02-02 10:32:00,
2013-02-02 01:42:00,29.0,-99.9,-100.00,NE,37,37.0,46.0,-999,0.00,,,0.14,,2013-02-02 10:42:00,
2013-02-02 01:52:00,29.0,-99.9,-100.00,NE,37,37.0,46.0,-999,0.00,,,0.14,,2013-02-02 10:52:00,
2013-02-02 02:00:00,29.0,-99.9,-100.00,ENE,69,35.0,41.0,-999,0.00,,,0.14,,2013-02-02 11:00:00,
2013-02-02 02:32:00,29.0,-99.9,-100.00,ENE,69,35.0,41.0,-999,0.00,,,0.14,,2013-02-02 11:32:00,
2013-02-02 02:42:00,29.0,-99.9,-100.00,ENE,69,35.0,41.0,-999,0.00,,,0.14,,2013-02-02 11:42:00,
2013-02-02 02:52:00,29.0,-99.9,-100.00,ENE,69,35.0,41.0,-999,0.00,,,0.14,,2013-02-02 11:52:00,
2013-02-02 03:00:00,29.0,-99.9,-100.00,NE,35,30.0,36.0,-999,-99.99,,,0.11,,2013-02-02 12:00:00,
2013-02-02 03:32:00,29.0,-99.9,-100.00,NE,35,30.0,36.0,-999,-99.99,,,0.11,,2013-02-02 12:32:00,
2013-02-02 03:42:00,29.0,-99.9,-100.00,NE,35,30.0,36.0,-999,-99.99,,,0.11,,2013-02-02 12:42:00,
2013-02-02 03:53:00,29.0,-99.9,-100.00,NE,35,30.0,36.0,-999,-99.99,,,0.11,,2013-02-02 12:53:00,
2013-02-02 04:00:00,29.0,-99.9,-100.00,NE,38,27.0,30.0,-999,0.00,,,0.10,,2013-02-02 13:00:00,
2013-02-02 04:33:00,29.0,-99.9,-100.00,NE,38,27.0,30.0,-999,0.00,,,0.10,,2013-02-02 13:33:00,
2013-02-02 04:43:00,29.0,-99.9,-100.00,NE,38,27.0,30.0,-999,0.00,,,0.10,,2013-02-02 13:43:00,
2013-02-02 04:52:00,29.0,-99.9,-100.00,NE,38,27.0,30.0,-999,0.00,,,0.10,,2013-02-02 13:52:00,
2013-02-02 05:00:00,29.0,-99.9,-100.00,ENE,72,23.0,28.0,-999,0.00,,,0.09,,2013-02-02 14:00:00,
2013-02-02 05:33:00,29.0,-99.9,-100.00,ENE,72,23.0,28.0,-999,0.00,,,0.09,,2013-02-02 14:33:00,
2013-02-02 05:42:00,29.0,-99.9,-100.00,ENE,72,23.0,28.0,-999,0.00,,,0.09,,2013-02-02 14:42:00,
2013-02-02 05:52:00,29.0,-99.9,-100.00,ENE,72,23.0,28.0,-999,0.00,,,0.09,,2013-02-02 14:52:00,
2013-02-02 06:00:00,29.0,-99.9,-100.00,ENE,58,19.0,26.0,-999,0.00,,,0.09,,2013-02-02 15:00:00,
2013-02-02 06:33:00,29.0,-99.9,-100.00,ENE,58,19.0,26.0,-999,0.00,,,0.09,,2013-02-02 15:33:00,
2013-02-02 06:42:00,29.0,-99.9,-100.00,ENE,58,19.0,26.0,-999,0.00,,,0.09,,2013-02-02 15:42:00,
2013-02-02 06:52:00,29.0,-99.9,-100.00,ENE,58,19.0,26.0,-999,0.00,,,0.09,,2013-02-02 15:52:00,
2013-02-02 07:00:00,31.0,-99.9,-100.00,ENE,71,23.0,27.0,-999,0.02,,,0.09,,2013-02-02 16:00:00,
2013-02-02 07:32:00,31.0,-99.9,-100.00,ENE,71,23.0,27.0,-999,0.02,,,0.09,,2013-02-02 16:32:00,
2013-02-02 07:43:00,31.0,-99.9,-100.00,ENE,71,23.0,27.0,-999,0.02,,,0.09,,2013-02-02 16:43:00,
2013-02-02 07:52:00,31.0,-99.9,-100.00,ENE,71,23.0,27.0,-999,0.02,,,0.09,,2013-02-02 16:52:00,
2013-02-02 08:00:00,30.0,-99.9,-100.00,NNE,33,22.0,26.0,-999,0.00,,,0.08,,2013-02-02 17:00:00,
2013-02-02 08:33:00,30.0,-99.9,-100.00,NNE,33,22.0,26.0,-999,0.00,,,0.08,,2013-02-02 17:33:00,
2013-02-02 08:42:00,30.0,-99.9,-100.00,NNE,33,22.0,26.0,-999,0.00,,,0.08,,2013-02-02 17:42:00,
2013-02-02 08:53:00,30.0,-99.9,-100.00,NNE,33,22.0,26.0,-999,0.00,,,0.08,,2013-02-02 17:53:00,
2013-02-02 09:00:00,31.0,-99.9,-100.00,NNE,25,15.0,21.0,-999,0.00,,,0.07,,2013-02-02 18:00:00,
2013-02-02 09:32:00,31.0,-99.9,-100.00,NNE,25,15.0,21.0,-999,0.00,,,0.07,,2013-02-02 18:32:00,
2013-02-02 09:42:00,31.0,-99.9,-100.00,NNE,25,15.0,21.0,-999,0.00,,,0.07,,2013-02-02 18:42:00,
2013-02-02 09:52:00,31.0,-99.9,-100.00,NNE,25,15.0,21.0,-999,0.00,,,0.07,,2013-02-02 18:52:00,
2013-02-02 10:00:00,31.0,-99.9,-100.00,NE,40,21.0,24.0,-999,0.00,,,0.07,,2013-02-02 19:00:00,
2013-02-02 10:33:00,31.0,-99.9,-100.00,NE,40,21.0,24.0,-999,0.00,,,0.07,,2013-02-02 19:33:00,
2013-02-02 10:42:00,31.0,-99.9,-100.00,NE,40,21.0,24.0,-999,0.00,,,0.07,,2013-02-02 19:42:00,
2013-02-02 10:52:00,31.0,-99.9,-100.00,NE,40,21.0,24.0,-999,0.00,,,0.07,,2013-02-02 19:52:00,
2013-02-02 11:00:00,30.0,-99.9,-100.00,NE,46,22.0,26.0,-999,0.01,,,0.07,,2013-02-02 20:00:00,
2013-02-02 11:32:00,30.0,-99.9,-100.00,NE,46,22.0,26.0,-999,0.01,,,0.07,,2013-02-02 20:32:00,
2013-02-02 11:42:00,30.0,-99.9,-100.00,NE,46,22.0,26.0,-999,0.01,,,0.07,,2013-02-02 20:42:00,
2013-02-02 11:52:00,30.0,-99.9,-100.00,NE,46,22.0,26.0,-999,0.01,,,0.07,,2013-02-02 20:52:00,
2013-02-02 12:00:00,30.0,-99.9,-100.00,ENE,67,24.0,29.0,-999,0.00,,,0.05,,2013-02-02 21:00:00,
2013-02-02 12:32:00,30.0,-99.9,-100.00,ENE,67,24.0,29.0,-999,0.00,,,0.05,,2013-02-02 21:32:00,
2013-02-02 12:43:00,30.0,-99.9,-100.00,ENE,67,24.0,29.0,-999,0.00,,,0.05,,2013-02-02 21:43:00,
2013-02-02 12:52:00,30.0,-99.9,-100.00,ENE,67,24.0,29.0,-999,0.00,,,0.05,,2013-02-02 21:52:00,
2013-02-02 13:00:00,30.0,-99.9,-100.00,NE,51,18.0,22.0,-999,0.00,,,0.04,,2013-02-02 22:00:00,
2013-02-02 13:32:00,30.0,-99.9,-100.00,NE,51,18.0,22.0,-999,0.00,,,0.04,,2013-02-02 22:32:00,
2013-02-02 13:42:00,30.0,-99.9,-100.00,NE,51,18.0,22.0,-999,0.00,,,0.04,,2013-02-02 22:42:00,
2013-02-02 13:52:00,30.0,-99.9,-100.00,NE,51,18.0,22.0,-999,0.00,,,0.04,,2013-02-02 22:52:00,
2013-02-02 14:00:00,30.0,-99.9,-100.00,NE,53,17.0,24.0,-999,0.00,,,0.03,,2013-02-02 23:00:00,
2013-02-02 14:33:00,30.0,-99.9,-100.00,NE,53,17.0,24.0,-999,0.00,,,0.03,,2013-02-02 23:33:00,
2013-02-02 14:42:00,30.0,-99.9,-100.00,NE,53,17.0,24.0,-999,0.00,,,0.03,,2013-02-02 23:42:00,
2013-02-02 14:52:00,30.0,-99.9,-100.00,NE,53,17.0,24.0,-999,0.00,,,0.03,,2013-02-02 23:52:00,
2013-02-02 15:00:00,30.0,-99.9,-100.00,NE,49,21.0,26.0,-999,0.01,,,0.04,,2013-02-03 00:00:00,
2013-02-02 15:32:00,30.0,-99.9,-100.00,NE,49,21.0,26.0,-999,0.01,,,0.04,,2013-02-03 00:32:00,
2013-02-02 15:42:00,30.0,-99.9,-100.00,NE,49,21.0,26.0,-999,0.01,,,0.04,,2013-02-03 00:42:00,
2013-02-02 15:52:00,30.0,-99.9,-100.00,NE,49,21.0,26.0,-999,0.01,,,0.04,,2013-02-03 00:52:00,
2013-02-02 16:00:00,29.0,-99.9,-100.00,NE,54,22.0,27.0,-999,-99.99,,,0.01,,2013-02-03 01:00:00,
2013-02-02 16:32:00,29.0,-99.9,-100.00,NE,54,22.0,27.0,-999,-99.99,,,0.01,,2013-02-03 01:32:00,
2013-02-02 16:42:00,29.0,-99.9,-100.00,NE,54,22.0,27.0,-999,-99.99,,,0.01,,2013-02-03 01:42:00,
2013-02-02 16:52:00,29.0,-99.9,-100.00,NE,54,22.0,27.0,-999,-99.99,,,0.01,,2013-02-03 01:52:00,
2013-02-02 17:00:00,29.0,-99.9,-100.00,NE,49,27.0,32.0,-999,0.00,,,0.01,,2013-02-03 02:00:00,
2013-02-02 17:32:00,29.0,-99.9,-100.00,NE,49,27.0,32.0,-999,0.00,,,0.01,,2013-02-03 02:32:00,
2013-02-02 17:42:00,29.0,-99.9,-100.00,NE,49,27.0,32.0,-999,0.00,,,0.01,,2013-02-03 02:42:00,
2013-02-02 17:53:00,29.0,-99.9,-100.00,NE,49,27.0,32.0,-999,0.00,,,0.01,,2013-02-03 02:53:00,
2013-02-02 18:00:00,29.0,-99.9,-100.00,NE,47,22.0,29.0,-999,0.00,,,0.01,,2013-02-03 03:00:00,
2013-02-02 18:32:00,29.0,-99.9,-100.00,NE,47,22.0,29.0,-999,0.00,,,0.01,,2013-02-03 03:32:00,
2013-02-02 18:42:00,29.0,-99.9,-100.00,NE,47,22.0,29.0,-999,0.00,,,0.01,,2013-02-03 03:42:00,
2013-02-02 18:52:00,29.0,-99.9,-100.00,NE,47,22.0,29.0,-999,0.00,,,0.01,,2013-02-03 03:52:00,
2013-02-02 19:00:00,30.0,-99.9,-100.00,NE,49,31.0,40.0,-999,0.00,,,0.01,,2013-02-03 04:00:00,
2013-02-02 19:32:00,30.0,-99.9,-100.00,NE,49,31.0,40.0,-999,0.00,,,0.01,,2013-02-03 04:32:00,
2013-02-02 19:42:00,30.0,-99.9,-100.00,NE,49,31.0,40.0,-999,0.00,,,0.01,,2013-02-03 04:42:00,
2013-02-02 19:52:00,30.0,-99.9,-100.00,NE,49,31.0,40.0,-999,0.00,,,0.01,,2013-02-03 04:52:00,
2013-02-02 20:00:00,29.0,-99.9,-100.00,NE,48,33.0,40.0,-999,0.00,,,0.01,,2013-02-03 05:00:00,
2013-02-02 20:32:00,29.0,-99.9,-100.00,NE,48,33.0,40.0,-999,0.00,,,0.01,,2013-02-03 05:32:00,
2013-02-02 20:42:00,29.0,-99.9,-100.00,NE,48,33.0,40.0,-999,0.00,,,0.01,,2013-02-03 05:42:00,
2013-02-02 20:53:00,29.0,-99.9,-100.00,NE,48,33.0,40.0,-999,0.00,,,0.01,,2013-02-03 05:53:00,
2013-02-02 21:00:00,30.0,-99.9,-100.00,NE,49,33.0,40.0,-999,0.00,,,0.01,,2013-02-03 06:00:00,
2013-02-02 21:32:00,30.0,-99.9,-100.00,NE,49,33.0,40.0,-999,0.00,,,0.01,,2013-02-03 06:32:00,
2013-02-02 21:42:00,30.0,-99.9,-100.00,NE,49,33.0,40.0,-999,0.00,,,0.01,,2013-02-03 06:42:00,
2013-02-02 21:52:00,30.0,-99.9,-100.00,NE,49,33.0,40.0,-999,0.00,,,0.01,,2013-02-03 06:52:00,
2013-02-02 22:00:00,30.0,-99.9,-100.00,NE,56,37.0,49.0,-999,0.00,,,0.01,,2013-02-03 07:00:00,
2013-02-02 22:32:00,30.0,-99.9,-100.00,NE,56,37.0,49.0,-999,0.00,,,0.01,,2013-02-03 07:32:00,
2013-02-02 22:42:00,30.0,-99.9,-100.00,NE,56,37.0,49.0,-999,0.00,,,0.01,,2013-02-03 07:42:00,
2013-02-02 22:53:00,30.0,-99.9,-100.00,NE,56,37.0,49.0,-999,0.00,,,0.01,,2013-02-03 07:53:00,
2013-02-02 23:00:00,30.0,-99.9,-100.00,NE,41,42.0,49.0,-999,0.00,,,0.01,,2013-02-03 08:00:00,
2013-02-02 23:32:00,30.0,-99.9,-100.00,NE,41,42.0,49.0,-999,0.00,,,0.01,,2013-02-03 08:32:00,
2013-02-02 23:42:00,30.0,-99.9,-100.00,NE,41,42.0,49.0,-999,0.00,,,0.01,,2013-02-03 08:42:00,
2013-02-02 23:52:00,30.0,-99.9,-100.00,NE,41,42.0,49.0,-999,0.00,,,0.01,,2013-02-03 08:52:00,